FW7071 Weather Reports


Display with metric or nautical units.
time (UTC)temp
F
wind
direction
speed
MPH
gust
MPH
rain 1hr
in
rain 24hr
in
rain mn
in
humidity
%
barometer
mb
20260507141657 56 207 1.0 1.0 0.00 0.33 0.33 68 1013.7
20260507141155 55 171 1.0 1.0 0.00 0.33 0.33 69 1013.6
20260507140651 55 312 2.0 2.0 0.00 0.33 0.33 73 1013.6
20260507140149 55 99 3.0 3.0 0.00 0.33 0.33 75 1013.9
20260507135646 54 296 1.0 2.0 0.00 0.33 0.33 73 1014.0
20260507135143 54 316 7.0 9.0 0.00 0.33 0.33 75 1013.8
20260507134639 54 317 5.0 9.0 0.00 0.33 0.33 73 1014.0
20260507134135 53 316 5.0 7.0 0.00 0.33 0.33 76 1014.1
20260507133631 52 187 0.0 1.0 0.00 0.33 0.33 78 1014.0
20260507133129 52 167 1.0 1.0 0.00 0.33 0.33 80 1014.0
20260507132626 52 12 3.0 3.0 0.00 0.33 0.33 79 1014.2
20260507132122 53 119 0.0 1.0 0.00 0.33 0.33 81 1013.8
20260507131619 53 279 3.0 6.0 0.00 0.33 0.33 79 1013.9
20260507131117 55 54 2.0 3.0 0.00 0.33 0.33 79 1013.6
20260507130613 55 313 8.0 10.0 0.00 0.33 0.33 78 1013.7
20260507130111 54 70 1.0 1.0 0.00 0.33 0.33 79 1013.9
20260507125610 54 86 1.0 1.0 0.00 0.33 0.33 83 1013.8
20260507125107 53 81 0.0 1.0 0.00 0.33 0.33 84 1013.8
20260507124603 52 130 1.0 1.0 0.00 0.33 0.33 83 1014.0
20260507124101 51 104 0.0 0.0 0.00 0.33 0.33 88 1013.8
20260507123559 50 88 0.0 0.0 0.00 0.33 0.33 90 1014.0
20260507123055 51 105 0.0 0.0 0.00 0.33 0.33 91 1014.0
20260507122550 51 93 1.0 2.0 0.00 0.33 0.33 91 1013.8
20260507122046 51 223 1.0 1.0 0.00 0.33 0.33 92 1013.8
20260507121542 51 98 0.0 0.0 0.00 0.33 0.33 92 1014.0
20260507121039 51 158 0.0 0.0 0.00 0.33 0.33 92 1013.7
20260507120535 51 264 2.0 2.0 0.00 0.33 0.33 92 1013.7
20260507120032 51 114 0.0 0.0 0.00 0.33 0.33 93 1013.7
20260507115528 51 354 0.0 0.0 0.00 0.33 0.33 94 1013.7
20260507115024 51 122 0.0 1.0 0.00 0.33 0.33 95 1013.9
20260507114520 51 69 0.0 0.0 0.00 0.33 0.33 96 1013.7
20260507114018 50 258 0.0 0.0 0.00 0.33 0.33 96 1013.8
20260507113515 50 295 1.0 1.0 0.00 0.33 0.33 96 1013.6
20260507113012 50 248 1.0 2.0 0.00 0.33 0.33 96 1013.5
20260507112509 50 344 2.0 3.0 0.00 0.33 0.33 96 1013.6
20260507112006 50 286 2.0 2.0 0.00 0.33 0.33 96 1013.5
20260507111504 50 274 1.0 1.0 0.00 0.33 0.33 96 1013.4
20260507110959 50 245 0.0 0.0 0.00 0.33 0.33 96 1013.2
20260507110456 49 250 1.0 1.0 0.00 0.33 0.33 96 1013.2
20260507105952 49 248 1.0 1.0 0.00 0.33 0.33 96 1013.1
20260507105449 49 265 2.0 2.0 0.00 0.33 0.33 96 1013.0
20260507104946 50 263 1.0 1.0 0.00 0.33 0.33 96 1013.0
20260507104443 49 291 1.0 1.0 0.00 0.33 0.33 96 1012.9
20260507103938 50 248 0.0 0.0 0.00 0.33 0.33 96 1012.8
20260507103436 49 247 1.0 1.0 0.00 0.33 0.33 97 1012.8
20260507102931 49 255 0.0 0.0 0.00 0.33 0.33 97 1012.6
20260507102428 49 281 2.0 3.0 0.00 0.33 0.33 98 1012.6
20260507101925 49 296 2.0 3.0 0.00 0.33 0.33 99 1012.5
20260507101420 49 273 1.0 1.0 0.00 0.33 0.33 99 1012.4
20260507100917 49 301 3.0 3.0 0.00 0.33 0.33 99 1012.5
20260507100414 49 257 1.0 2.0 0.00 0.33 0.33 99 1012.5
20260507095913 49 249 0.0 0.0 0.00 0.33 0.33 99 1012.3
20260507095409 49 263 1.0 2.0 0.00 0.33 0.33 99 1012.3
20260507094907 49 266 1.0 1.0 0.00 0.33 0.33 99 1012.3
20260507094403 49 306 2.0 2.0 0.00 0.33 0.33 99 1012.2
20260507093900 49 253 0.0 1.0 0.00 0.33 0.33 99 1012.1
20260507093358 49 246 1.0 1.0 0.00 0.33 0.33 99 1012.0
20260507092856 49 233 0.0 1.0 0.00 0.33 0.33 99 1012.3
20260507092352 49 214 0.0 0.0 0.00 0.33 0.33 99 1011.9
20260507091848 49 204 0.0 0.0 0.00 0.33 0.33 99 1012.1
20260507091345 49 204 0.0 0.0 0.00 0.33 0.33 99 1011.8
20260507090840 49 209 0.0 0.0 0.00 0.33 0.33 99 1011.9
20260507090337 48 193 0.0 0.0 0.00 0.33 0.33 99 1011.9
20260507085834 49 193 0.0 0.0 0.00 0.33 0.33 99 1012.0
20260507085331 49 193 0.0 0.0 0.00 0.33 0.33 99 1011.7
20260507084828 49 160 0.0 0.0 0.00 0.33 0.33 99 1012.1
20260507084324 49 160 0.0 0.0 0.00 0.33 0.33 99 1011.7
20260507083822 49 160 0.0 0.0 0.00 0.33 0.33 99 1011.9
20260507083318 49 160 0.0 0.0 0.00 0.33 0.33 99 1012.1
20260507082814 49 160 0.0 0.0 0.00 0.33 0.33 99 1012.1
20260507082310 49 160 0.0 0.0 0.00 0.33 0.33 99 1012.1
20260507081808 49 160 0.0 0.0 0.00 0.33 0.33 99 1011.9
20260507081303 49 160 0.0 0.0 0.00 0.33 0.33 99 1012.2
20260507080800 49 160 0.0 0.0 0.00 0.33 0.33 99 1012.0
20260507080257 49 160 0.0 0.0 0.00 0.33 0.33 99 1012.0
20260507075752 49 160 0.0 0.0 0.00 0.33 0.33 99 1012.1
20260507075248 49 160 0.0 0.0 0.00 0.33 0.33 99 1012.0
20260507074744 49 160 0.0 0.0 0.00 0.33 0.33 99 1012.2
20260507074243 49 160 0.0 0.0 0.00 0.33 0.33 99 1012.0
20260507073739 49 160 0.0 0.0 0.00 0.33 0.33 99 1012.3
20260507073236 49 160 0.0 0.0 0.00 0.33 0.33 99 1012.3
20260507072734 49 160 0.0 0.0 0.00 0.33 0.33 99 1012.5
20260507072231 49 160 0.0 0.0 0.00 0.33 0.33 99 1012.5
20260507071728 49 160 0.0 0.0 0.00 0.33 0.33 99 1012.5
20260507071224 49 160 0.0 0.0 0.00 0.33 0.33 99 1012.4
20260507070722 49 160 0.0 0.0 0.00 0.33 0.33 99 1012.6
20260507070219 49 160 0.0 0.0 0.05 0.33 0.33 99 1012.5
20260507065715 49 160 0.0 0.0 0.05 0.33 0.33 99 1012.6
20260507065212 49 167 0.0 0.0 0.07 0.32 0.32 99 1012.6
20260507064709 49 189 0.0 0.0 0.07 0.32 0.32 99 1012.8
20260507064208 49 214 0.0 0.0 0.00 0.31 0.31 99 1012.7
20260507063705 49 178 0.0 0.0 0.05 0.31 0.31 99 1012.5
20260507063201 49 156 0.0 0.0 0.05 0.31 0.31 99 1012.6
20260507062659 50 294 1.0 2.0 0.00 0.30 0.30 99 1012.9
20260507062156 50 78 0.0 0.0 0.00 0.30 0.30 99 1012.6
20260507061654 50 87 1.0 1.0 0.07 0.30 0.30 99 1012.4
20260507061152 50 93 0.0 0.0 0.19 0.30 0.30 99 1012.1
20260507060649 50 267 1.0 2.0 0.12 0.29 0.29 99 1012.6
20260507060146 50 229 0.0 0.0 0.12 0.27 0.27 99 1012.6
20260507055641 50 207 0.0 0.0 0.12 0.27 0.27 99 1012.7
20260507055138 51 287 3.0 3.0 0.07 0.25 0.25 99 1012.8
20260507054633 51 231 1.0 1.0 0.12 0.25 0.25 99 1012.6
20260507054131 51 222 0.0 0.0 0.12 0.24 0.24 99 1012.4
20260507053628 52 243 1.0 1.0 0.07 0.23 0.23 99 1012.6
20260507053126 52 221 0.0 0.0 0.05 0.22 0.22 99 1012.7
20260507052624 51 143 0.0 0.0 0.12 0.22 0.22 99 1012.3
20260507052120 51 218 0.0 0.0 0.07 0.21 0.21 99 1012.2
20260507051618 51 131 0.0 0.0 0.05 0.20 0.20 99 1012.3
20260507051115 51 144 0.0 0.0 0.31 0.20 0.20 98 1012.4
20260507050612 52 121 0.0 0.0 0.50 0.19 0.19 98 1012.2
20260507050108 52 221 0.0 0.0 0.24 0.14 0.14 98 1012.4
20260507045605 52 65 0.0 1.0 0.05 0.11 0.11 98 1012.0
20260507045102 52 150 0.0 0.0 0.00 0.10 0.10 98 1011.9
20260507044559 52 102 0.0 1.0 0.07 0.10 0.10 97 1011.8
20260507044056 53 47 0.0 0.0 0.24 0.10 0.10 97 1012.0
20260507043551 53 246 0.0 0.0 0.31 0.08 0.08 95 1012.1
20260507043049 53 109 2.0 2.0 0.31 0.06 0.06 94 1011.5
20260507042544 54 148 0.0 0.0 0.19 0.03 0.03 92 1011.8
20260507042040 54 136 0.0 0.0 0.07 0.01 0.01 91 1011.7
20260507041538 54 248 0.0 1.0 0.00 0.00 0.00 91 1011.6
20260507041034 54 223 0.0 0.0 0.00 0.00 0.00 91 1011.3
20260507040531 54 65 1.0 2.0 0.00 0.00 0.00 91 1011.9
20260507040027 54 167 0.0 1.0 0.00 0.18 0.18 91 1011.9
20260507035523 55 160 0.0 0.0 0.00 0.18 0.18 91 1011.7
20260507035020 55 226 0.0 1.0 0.00 0.18 0.18 90 1011.7
20260507034517 55 187 0.0 1.0 0.00 0.18 0.18 89 1011.9
20260507034015 55 262 1.0 2.0 0.00 0.18 0.18 89 1012.1
20260507033512 55 272 2.0 2.0 0.00 0.18 0.18 90 1011.8
20260507033009 56 326 6.0 7.0 0.00 0.18 0.18 91 1011.7
20260507032506 56 85 0.0 1.0 0.00 0.18 0.18 92 1011.6
20260507032003 56 92 0.0 0.0 0.00 0.18 0.18 92 1011.5
20260507031458 57 197 2.0 2.0 0.00 0.18 0.18 92 1011.4
20260507030955 57 112 1.0 3.0 0.00 0.18 0.18 92 1011.2
20260507030453 57 243 0.0 1.0 0.00 0.18 0.18 92 1011.4
20260507025950 57 269 0.0 1.0 0.00 0.18 0.18 93 1011.4
20260507025447 57 126 0.0 0.0 0.00 0.18 0.18 93 1011.1
20260507024945 58 97 1.0 2.0 0.00 0.18 0.18 93 1011.1
20260507024442 58 160 1.0 1.0 0.00 0.18 0.18 94 1011.3
20260507023938 59 200 1.0 1.0 0.00 0.18 0.18 94 1010.8
20260507023435 59 28 0.0 1.0 0.00 0.18 0.18 93 1011.0
20260507022932 59 248 2.0 2.0 0.00 0.18 0.18 94 1011.2
20260507022429 60 322 4.0 7.0 0.00 0.18 0.18 94 1010.9
20260507021924 62 176 4.0 6.0 0.00 0.18 0.18 95 1010.9
20260507021420 62 288 5.0 7.0 0.00 0.18 0.18 96 1010.9
20260507020918 63 250 1.0 1.0 0.00 0.18 0.18 97 1010.7
20260507020414 63 265 3.0 3.0 0.00 0.18 0.18 97 1010.9
20260507015911 63 325 1.0 2.0 0.00 0.18 0.18 97 1010.7
20260507015409 63 236 1.0 2.0 0.00 0.18 0.18 96 1010.9
20260507014906 63 307 4.0 5.0 0.00 0.18 0.18 96 1010.9
20260507014403 63 278 2.0 3.0 0.00 0.18 0.18 96 1011.2
20260507013859 64 256 2.0 2.0 0.00 0.18 0.18 96 1011.0
20260507013356 64 196 3.0 5.0 0.00 0.18 0.18 95 1010.6
20260507012853 64 228 3.0 3.0 0.00 0.18 0.18 95 1010.6
20260507012349 64 281 2.0 2.0 0.00 0.18 0.18 95 1010.9
20260507011847 64 281 5.0 6.0 0.00 0.18 0.18 95 1010.7
20260507011344 64 209 1.0 1.0 0.00 0.18 0.18 95 1010.7
20260507010843 65 301 3.0 3.0 0.00 0.18 0.18 95 1010.6
20260507010339 65 230 2.0 2.0 0.00 0.18 0.18 95 1010.8
20260507005837 65 241 4.0 5.0 0.00 0.18 0.18 95 1010.6
20260507005333 65 289 2.0 2.0 0.00 0.18 0.18 95 1010.6
20260507004830 65 243 1.0 2.0 0.00 0.18 0.18 95 1010.7
20260507004327 65 273 3.0 5.0 0.00 0.18 0.18 95 1010.5
20260507003824 65 211 2.0 2.0 0.00 0.18 0.18 95 1010.1
20260507003320 65 276 3.0 5.0 0.00 0.18 0.18 95 1010.0
20260507002815 65 308 2.0 2.0 0.00 0.18 0.18 94 1009.8
20260507002311 65 247 3.0 5.0 0.00 0.18 0.18 94 1009.7
20260507001809 65 192 0.0 0.0 0.00 0.18 0.18 94 1009.5
20260507001306 65 263 2.0 2.0 0.00 0.18 0.18 93 1009.7
20260507000802 65 197 1.0 1.0 0.00 0.18 0.18 93 1009.6
20260507000259 65 235 1.0 1.0 0.00 0.18 0.18 93 1009.7
20260506235754 65 234 3.0 3.0 0.00 0.18 0.18 93 1009.3
20260506235250 66 246 1.0 1.0 0.00 0.18 0.18 92 1009.4
20260506234748 66 298 0.0 1.0 0.00 0.18 0.18 93 1009.1
20260506234245 66 220 1.0 1.0 0.00 0.18 0.18 92 1009.4
20260506233742 66 216 0.0 1.0 0.00 0.18 0.18 92 1009.5
20260506233238 66 198 2.0 2.0 0.00 0.18 0.18 92 1009.4
20260506232735 66 237 2.0 2.0 0.00 0.18 0.18 92 1009.2
20260506232230 66 204 0.0 0.0 0.00 0.18 0.18 92 1009.4
20260506231727 66 220 1.0 2.0 0.00 0.18 0.18 92 1009.2
20260506231226 66 256 3.0 5.0 0.00 0.18 0.18 92 1009.1
20260506230722 66 219 1.0 1.0 0.00 0.18 0.18 92 1009.4
20260506230219 66 273 3.0 5.0 0.00 0.18 0.18 91 1009.2
20260506225715 66 225 2.0 3.0 0.00 0.18 0.18 91 1009.3
20260506225213 66 197 0.0 0.0 0.00 0.18 0.18 91 1009.4
20260506224709 66 196 0.0 0.0 0.00 0.18 0.18 91 1009.2
20260506224206 66 212 1.0 2.0 0.00 0.18 0.18 91 1009.0
20260506223702 66 248 3.0 3.0 0.00 0.18 0.18 91 1009.2
20260506223158 67 222 3.0 3.0 0.00 0.18 0.18 90 1009.3
20260506222655 67 229 0.0 0.0 0.00 0.18 0.18 90 1009.2
20260506222151 67 192 2.0 3.0 0.00 0.18 0.18 89 1009.2
20260506221649 67 269 3.0 5.0 0.00 0.18 0.18 89 1009.0
20260506221147 68 207 1.0 2.0 0.00 0.18 0.18 88 1008.8
20260506220643 67 238 3.0 3.0 0.00 0.18 0.18 89 1008.7
20260506220138 67 214 3.0 3.0 0.00 0.18 0.18 89 1009.0
20260506215635 67 231 2.0 3.0 0.00 0.18 0.18 89 1009.0
20260506215131 67 289 4.0 6.0 0.00 0.18 0.18 89 1009.3
20260506214628 67 222 6.0 7.0 0.00 0.18 0.18 89 1009.1
20260506214126 67 237 1.0 2.0 0.00 0.18 0.18 90 1009.2
20260506213624 67 268 3.0 3.0 0.00 0.18 0.18 89 1008.9
20260506213120 67 233 3.0 3.0 0.00 0.18 0.18 90 1008.9
20260506212618 67 259 3.0 5.0 0.00 0.18 0.18 90 1009.0
20260506212113 67 351 2.0 2.0 0.00 0.18 0.18 90 1008.7
20260506211608 67 239 2.0 2.0 0.00 0.18 0.18 89 1008.8
20260506211106 67 268 2.0 2.0 0.00 0.18 0.18 90 1008.7
20260506210602 67 202 3.0 5.0 0.00 0.18 0.18 89 1008.5
20260506210059 67 216 0.0 1.0 0.00 0.18 0.18 90 1008.7
20260506205555 66 210 1.0 1.0 0.00 0.18 0.18 91 1008.4
20260506205051 65 230 2.0 2.0 0.00 0.18 0.18 93 1008.7
20260506204549 65 207 1.0 2.0 0.00 0.18 0.18 93 1008.5
20260506204045 64 230 3.0 3.0 0.00 0.18 0.18 93 1008.7
20260506203544 64 226 1.0 2.0 0.00 0.18 0.18 93 1008.7
20260506203040 64 205 2.0 2.0 0.00 0.18 0.18 93 1008.7
20260506202538 64 246 2.0 2.0 0.00 0.18 0.18 93 1008.9
20260506202034 64 211 6.0 7.0 0.00 0.18 0.18 93 1008.7
20260506201532 65 236 3.0 5.0 0.00 0.18 0.18 93 1008.7
20260506201028 64 229 3.0 3.0 0.00 0.18 0.18 94 1008.4
20260506200524 64 281 3.0 5.0 0.00 0.18 0.18 95 1008.8
20260506200021 63 247 3.0 3.0 0.00 0.18 0.18 95 1008.8
20260506195518 63 148 2.0 5.0 0.00 0.18 0.18 96 1009.0
20260506195014 63 227 5.0 7.0 0.00 0.18 0.18 96 1009.0
20260506194512 63 31 2.0 2.0 0.00 0.18 0.18 96 1009.0
20260506194008 63 15 1.0 2.0 0.00 0.18 0.18 97 1009.0
20260506193505 63 215 2.0 3.0 0.00 0.18 0.18 98 1008.9
20260506192956 62 210 3.0 8.0 0.00 0.18 0.18 99 1009.1
20260506192454 62 150 1.0 2.0 0.00 0.18 0.18 99 1009.0
20260506191949 62 220 0.0 1.0 0.00 0.18 0.18 99 1009.1
20260506191447 61 248 5.0 6.0 0.00 0.18 0.18 99 1009.3
20260506190942 61 269 5.0 7.0 0.00 0.18 0.18 99 1009.0
20260506190440 61 303 4.0 5.0 0.00 0.18 0.18 99 1009.1
20260506185936 61 239 4.0 5.0 0.00 0.18 0.18 99 1009.3
20260506185434 61 210 2.0 3.0 0.00 0.18 0.18 99 1009.3
20260506184931 61 297 0.0 1.0 0.00 0.18 0.18 99 1009.4
20260506184427 61 283 3.0 3.0 0.00 0.18 0.18 99 1009.3
20260506183925 60 242 3.0 5.0 0.00 0.18 0.18 99 1009.4
20260506183420 61 222 2.0 2.0 0.00 0.18 0.18 99 1009.6
20260506182918 61 202 3.0 5.0 0.00 0.18 0.18 99 1009.7
20260506182415 60 259 4.0 5.0 0.00 0.18 0.18 99 1009.6
20260506181912 61 265 4.0 6.0 0.00 0.18 0.18 99 1009.6
20260506181410 61 296 6.0 8.0 0.00 0.18 0.18 99 1009.8
20260506180906 61 168 2.0 3.0 0.00 0.18 0.18 99 1009.7
20260506180403 60 200 1.0 2.0 0.00 0.18 0.18 99 1009.8
20260506175900 60 232 3.0 3.0 0.00 0.18 0.18 99 1009.7
20260506175356 60 334 2.0 2.0 0.00 0.18 0.18 99 1009.7
20260506174853 60 206 3.0 5.0 0.00 0.18 0.18 99 1009.8
20260506174351 60 212 4.0 5.0 0.00 0.18 0.18 99 1009.8
20260506173848 60 215 3.0 3.0 0.00 0.18 0.18 99 1009.8
20260506173344 60 292 1.0 2.0 0.00 0.18 0.18 99 1009.7
20260506172842 60 254 3.0 3.0 0.00 0.18 0.18 99 1009.7
20260506172338 60 131 0.0 1.0 0.00 0.18 0.18 99 1009.7
20260506171836 60 205 1.0 2.0 0.00 0.18 0.18 99 1009.4
20260506171332 60 256 5.0 6.0 0.00 0.18 0.18 99 1009.9
20260506170825 60 243 4.0 6.0 0.00 0.18 0.18 99 1010.0
20260506170321 60 219 4.0 9.0 0.00 0.18 0.18 99 1010.1
20260506165820 60 291 2.0 5.0 0.00 0.18 0.18 99 1010.0
20260506165317 60 194 1.0 2.0 0.00 0.18 0.18 99 1009.8
20260506164813 60 324 3.0 3.0 0.00 0.18 0.18 99 1010.0
20260506164310 60 179 3.0 3.0 0.00 0.18 0.18 99 1009.9
20260506163807 60 194 7.0 11.0 0.00 0.18 0.18 99 1009.6
20260506163302 60 204 3.0 6.0 0.00 0.18 0.18 99 1009.8
20260506162758 61 137 3.0 5.0 0.00 0.18 0.18 99 1009.7
20260506162256 60 228 7.0 10.0 0.00 0.18 0.18 99 1009.3
20260506161753 60 200 1.0 1.0 0.05 0.18 0.18 99 1009.4
20260506161250 60 167 5.0 7.0 0.00 0.17 0.17 99 1009.7
20260506160748 60 247 3.0 5.0 0.00 0.17 0.17 99 1009.9
20260506160244 60 242 5.0 7.0 0.00 0.17 0.17 99 1010.3
20260506155743 60 212 6.0 7.0 0.07 0.17 0.17 99 1010.7
20260506155239 60 183 0.0 0.0 0.12 0.17 0.17 99 1010.8
20260506153352 60 193 0.0 1.0 0.12 0.14 0.14 99 1010.6
20260506152849 60 235 2.0 2.0 0.12 0.13 0.13 99 1011.2
20260506152346 60 200 1.0 1.0 0.12 0.12 0.12 99 1011.3
20260506151845 60 267 1.0 2.0 0.14 0.11 0.11 99 1011.1
20260506151341 60 206 2.0 2.0 0.12 0.10 0.10 99 1011.2
20260506150839 60 209 2.0 2.0 0.05 0.09 0.09 99 1011.1
20260506150335 60 295 5.0 8.0 0.07 0.08 0.08 99 1011.2
20260506145832 60 192 3.0 5.0 0.07 0.08 0.08 99 1011.1
20260506145328 60 277 1.0 2.0 0.05 0.07 0.07 98 1011.0
20260506144826 61 228 5.0 6.0 0.05 0.07 0.07 98 1010.9
20260506144322 61 262 5.0 6.0 0.07 0.06 0.06 97 1010.8
20260506143821 61 178 1.0 1.0 0.12 0.06 0.06 97 1010.9
20260506143317 61 278 3.0 5.0 0.12 0.05 0.05 97 1010.9
20260506142816 61 293 4.0 7.0 0.12 0.04 0.04 96 1010.9
20260506142314 62 103 1.0 1.0 0.12 0.03 0.03 95 1010.8